Location: Newark
(43.0000°N, 1.6781°W)
Time: 11:53:41
(UTC+00:00)

LilacSat-2 - Pass Details

Date: 03 December 2022
Orbit: 504 x 522 km, 97.5° (Epoch: 06 February)

Event Time Altitude Azimuth Distance (km) Brightness Sun altitude
Rises 18:03:25 0° 199° (SSW) 2,637 ? -16.1°
Maximum altitude 18:08:47 20° 266° (W) 1,236 ? -17.1°
Drops below altitude 10° 18:11:38 10° 315° (NW) 1,754 ? -17.6°
Sets 18:14:10 0° 333° (NNW) 2,642 ? -18.0°
